Home   Weather   Caledon   Past weeks
Flag for Canada

Past Weather in Caledon, Ontario, Canada — Yesterday and Last 2 Weeks

Now
66 °F

Passing clouds.


Feels Like: 66 °F
Forecast: 84 / 67 °F
Wind: 2 mph from South

Location: Borden

Current Time: Jul 18, 2019 at 12:56:44 am

Latest Report: Jul 18, 2019 at 12:00 am


Visibility: 9 mi

Pressure: 29.91 "Hg

Humidity: 88%

Dew Point: 63 °F

Location of CaledonLocation

Past Weather in Caledon — Graph

°F

Caledon Temperature Yesterday

Maximum temperature yesterday: 86 °F (at 3:00 pm)
Minimum temperature yesterday: 66 °F (at 11:00 pm)
Average temperature yesterday: 76 °F

High & Low Weather Summary for the Past Weeks

 TemperatureHumidityPressure
High93 °F (Jul 5, 4:00 pm)100% (Jul 2, 11:00 pm)30.12 "Hg (Jul 2, 11:00 pm)
Low41 °F (Jul 15, 5:50 am)25% (Jul 3, 7:00 pm)29.72 "Hg (Jul 11, 11:00 am)
Average70 °F73%29.95 "Hg
* Reported Jul 2 11:00 pm — Jul 17 11:00 pm, Caledon. Weather by CustomWeather, © 2019

Note: Actual official high and low records may vary slightly from our data, if they occured in-between our weather recording intervals... More about our weather records

Advertising

Caledon Weather History for the Previous 24 Hours

Scroll right to see more
 ConditionsComfort  
Time TempWeatherWind HumidityBarometerVisibility
11:00 pm
Wed, Jul 17
66 °FPassing clouds.2 mph88%29.91 "Hg9 mi
10:00 pm68 °FPassing clouds.No wind83%29.91 "Hg9 mi
9:00 pm73 °FClear.3 mph69%29.90 "Hg9 mi
8:00 pm77 °FSunny.3 mph61%29.89 "Hg9 mi
7:00 pm79 °FPassing clouds.10 mph61%29.88 "Hg9 mi
6:00 pm81 °FPassing clouds.12 mph58%29.88 "Hg9 mi
5:00 pm82 °FSunny.12 mph55%29.86 "Hg9 mi
4:00 pm82 °FSunny.13 mph58%29.87 "Hg9 mi
3:00 pm86 °FSunny.8 mph55%29.86 "Hg9 mi
2:00 pm84 °FPassing clouds.12 mph58%29.89 "Hg9 mi
1:00 pm84 °FPartly sunny.9 mph58%29.88 "Hg9 mi
12:06 pm81 °FPartly sunny.3 mph70%29.89 "Hg9 mi
11:35 am81 °FPartly sunny.3 mph70%29.89 "Hg9 mi
11:00 am81 °FPassing clouds.No wind70%29.88 "Hg9 mi
10:00 am77 °FPassing clouds.5 mph79%29.89 "Hg9 mi
9:33 am73 °FPartly sunny.6 mph89%29.90 "Hg9 mi
9:00 am73 °FMostly cloudy.8 mph89%29.89 "Hg9 mi
8:03 am73 °FMostly cloudy.3 mph94%29.89 "Hg9 mi
7:00 am72 °FOvercast.No wind94%29.87 "Hg7 mi
6:21 am70 °FPartly sunny.No wind94%29.87 "Hg5 mi
6:00 am70 °FScattered clouds.2 mph100%29.86 "Hg7 mi
5:59 am70 °FScattered clouds.3 mph100%29.87 "Hg7 mi
5:00 am72 °FPassing clouds.No wind94%29.86 "Hg9 mi
4:00 am72 °FPassing clouds.No wind94%29.85 "Hg9 mi
3:00 am72 °FPassing clouds.2 mph94%29.86 "Hg9 mi
2:00 am73 °FPassing clouds.3 mph89%29.87 "Hg9 mi
1:00 am72 °FPassing clouds.5 mph94%29.89 "Hg9 mi
12:00 am73 °FClear.3 mph89%29.89 "Hg9 mi
Weather by CustomWeather, © 2019

See weather overview